| time (UTC) | temp F | wind direction | speed knots | gust knots | rain 1hr in | rain 24hr in | rain mn in | humidity % | barometer mb |
| 20260504213406 | 50 | 210 | 7.0 | 0.0 | 0.00 | 0.00 | 0.00 | 76 | 1016.0 |
| 20260504211850 | 50 | 210 | 7.0 | 0.0 | 0.00 | 0.00 | 0.00 | 82 | 1016.0 |
| 20260504210350 | 50 | 210 | 7.0 | 0.0 | 0.00 | 0.00 | 0.00 | 82 | 1016.0 |
| 20260504203352 | 52 | 210 | 8.7 | 0.0 | 0.00 | 0.00 | 0.00 | 77 | 1016.0 |
| 20260504200351 | 52 | 220 | 9.6 | 0.0 | 0.00 | 0.00 | 0.00 | 82 | 1016.0 |
| 20260504194851 | 54 | 210 | 8.7 | 0.0 | 0.00 | 0.00 | 0.00 | 77 | 1016.0 |
| 20260504193351 | 54 | 210 | 8.7 | 0.0 | 0.00 | 0.00 | 0.00 | 77 | 1016.0 |
| 20260504191850 | 55 | 220 | 7.8 | 0.0 | 0.00 | 0.00 | 0.00 | 77 | 1016.0 |
| 20260504190351 | 55 | 220 | 7.8 | 0.0 | 0.00 | 0.00 | 0.00 | 77 | 1016.0 |
| 20260504184848 | 57 | 210 | 7.8 | 0.0 | 0.00 | 0.00 | 0.00 | 77 | 1016.0 |
| 20260504183401 | 57 | 210 | 7.8 | 0.0 | 0.00 | 0.00 | 0.00 | 77 | 1016.0 |
| 20260504181850 | 64 | 310 | 4.3 | 0.0 | 0.00 | 0.00 | 0.00 | 43 | 1015.0 |
| 20260504180351 | 64 | 310 | 4.3 | 0.0 | 0.00 | 0.00 | 0.00 | 43 | 1015.0 |
| 20260504174851 | 64 | 350 | 4.3 | 0.0 | 0.00 | 0.00 | 0.00 | 46 | 1015.0 |
| 20260504173351 | 64 | 350 | 4.3 | 0.0 | 0.00 | 0.00 | 0.00 | 46 | 1015.0 |
| 20260504171850 | 66 | 2.6 | 0.0 | 0.00 | 0.00 | 0.00 | 43 | 1015.0 | |
| 20260504170350 | 66 | 2.6 | 0.0 | 0.00 | 0.00 | 0.00 | 43 | 1015.0 | |
| 20260504160351 | 70 | 1.7 | 0.0 | 0.00 | 0.00 | 0.00 | 40 | 1015.0 | |
| 20260504150350 | 70 | 130 | 6.1 | 0.0 | 0.00 | 0.00 | 0.00 | 40 | 1015.0 |
| 20260504140351 | 68 | 360 | 4.3 | 0.0 | 0.00 | 0.00 | 0.00 | 40 | 1015.0 |
| 20260504130350 | 68 | 300 | 8.7 | 0.0 | 0.00 | 0.00 | 0.00 | 40 | 1016.0 |
| 20260504110351 | 66 | 300 | 12.2 | 0.0 | 0.00 | 0.00 | 0.00 | 43 | 1017.0 |
| 20260504100350 | 64 | 290 | 12.2 | 0.0 | 0.00 | 0.00 | 0.00 | 43 | 1017.0 |
| 20260504081850 | 59 | 290 | 14.8 | 0.0 | 0.00 | 0.00 | 0.00 | 48 | 1018.0 |
| 20260504080350 | 59 | 290 | 14.8 | 0.0 | 0.00 | 0.00 | 0.00 | 48 | 1018.0 |
| 20260504070352 | 57 | 300 | 13.0 | 0.0 | 0.00 | 0.00 | 0.00 | 44 | 1018.0 |
| 20260504050400 | 46 | 1.7 | 0.0 | 0.00 | 0.00 | 0.00 | 71 | 1018.0 | |
| 20260504044851 | 43 | 340 | 1.7 | 0.0 | 0.00 | 0.00 | 0.00 | 81 | 1018.0 |
| 20260504043350 | 43 | 340 | 1.7 | 0.0 | 0.00 | 0.00 | 0.00 | 81 | 1018.0 |
| 20260504041851 | 41 | 2.6 | 0.0 | 0.00 | 0.00 | 0.00 | 81 | 1018.0 | |
| 20260504040350 | 41 | 2.6 | 0.0 | 0.00 | 0.00 | 0.00 | 81 | 1018.0 | |
| 20260504034851 | 43 | 1.7 | 0.0 | 0.00 | 0.00 | 0.00 | 76 | 1018.0 | |
| 20260504033350 | 43 | 1.7 | 0.0 | 0.00 | 0.00 | 0.00 | 76 | 1018.0 | |
| 20260504031847 | 41 | 1.7 | 0.0 | 0.00 | 0.00 | 0.00 | 76 | 1018.0 | |
| 20260504030513 | 41 | 1.7 | 0.0 | 0.00 | 0.00 | 0.00 | 76 | 1018.0 | |
| 20260504024848 | 41 | 270 | 6.1 | 0.0 | 0.00 | 0.00 | 0.00 | 76 | 1018.0 |
| 20260504023350 | 41 | 270 | 6.1 | 0.0 | 0.00 | 0.00 | 0.00 | 76 | 1018.0 |
| 20260504021847 | 39 | 270 | 5.2 | 0.0 | 0.00 | 0.00 | 0.00 | 81 | 1019.0 |
| 20260504020351 | 39 | 270 | 5.2 | 0.0 | 0.00 | 0.00 | 0.00 | 81 | 1019.0 |
| 20260504014850 | 41 | 6.1 | 0.0 | 0.00 | 0.00 | 0.00 | 70 | 1019.0 | |
| 20260504013355 | 41 | 6.1 | 0.0 | 0.00 | 0.00 | 0.00 | 70 | 1019.0 | |
| 20260504012012 | 43 | 310 | 5.2 | 0.0 | 0.00 | 0.00 | 0.00 | 71 | 1018.0 |
| 20260504010351 | 43 | 310 | 5.2 | 0.0 | 0.00 | 0.00 | 0.00 | 71 | 1018.0 |
| 20260504005012 | 43 | 280 | 2.6 | 0.0 | 0.00 | 0.00 | 0.00 | 71 | 1018.0 |
| 20260504003350 | 43 | 280 | 2.6 | 0.0 | 0.00 | 0.00 | 0.00 | 71 | 1018.0 |
| 20260504001850 | 45 | 230 | 6.1 | 0.0 | 0.00 | 0.00 | 0.00 | 71 | 1018.0 |
| 20260504000351 | 45 | 230 | 6.1 | 0.0 | 0.00 | 0.00 | 0.00 | 71 | 1018.0 |
| 20260503234927 | 45 | 230 | 7.0 | 0.0 | 0.00 | 0.00 | 0.00 | 66 | 1018.0 |
| 20260503233350 | 45 | 230 | 7.0 | 0.0 | 0.00 | 0.00 | 0.00 | 66 | 1018.0 |